CW9366 Weather Reports


time (UTC)temp
C
wind
direction
speed
KPH
gust
KPH
rain 1hr
cm
rain 24hr
cm
rain mn
cm
humidity
%
barometer
mb
20260510225503 19 5 0.0 6.4 0.00 0.58 0.03 38 1018.1
20260510225003 20 357 1.6 9.7 0.00 0.58 0.03 36 1018.0
20260510224503 20 357 1.6 9.7 0.00 0.58 0.03 34 1018.1
20260510224003 21 0 0.0 0.0 0.00 0.58 0.03 36 1018.2
20260510223503 21 0 0.0 0.0 0.00 0.58 0.03 39 1018.1
20260510223003 21 0 0.0 0.0 0.00 0.58 0.03 34 1018.1
20260510222503 21 0 0.0 0.0 0.00 0.58 0.03 33 1018.1
20260510222003 21 0 0.0 0.0 0.00 0.58 0.03 36 1018.1
20260510221503 21 355 0.0 8.0 0.00 0.58 0.03 37 1018.1
20260510221003 21 356 1.6 9.7 0.00 0.58 0.03 38 1018.2
20260510220503 21 352 1.6 11.3 0.00 0.58 0.03 35 1018.1
20260510220003 21 352 1.6 11.3 0.00 0.58 0.03 36 1018.1
20260510215503 21 359 0.0 9.7 0.00 0.58 0.03 36 1018.2
20260510215003 20 353 1.6 12.9 0.00 0.58 0.03 35 1018.2
20260510214503 20 352 1.6 12.9 0.00 0.58 0.03 36 1018.2
20260510214003 21 346 0.0 8.0 0.00 0.58 0.03 37 1018.2
20260510213503 21 0 0.0 0.0 0.00 0.58 0.03 35 1018.1
20260510213003 21 0 0.0 0.0 0.00 0.58 0.03 38 1018.1
20260510212503 21 0 0.0 0.0 0.00 0.58 0.03 34 1018.1
20260510212003 21 0 0.0 0.0 0.00 0.58 0.03 36 1018.1
20260510211503 21 0 0.0 0.0 0.00 0.58 0.03 38 1018.1
20260510211003 21 0 0.0 0.0 0.00 0.58 0.03 34 1018.2
20260510210503 21 0 0.0 0.0 0.00 0.58 0.03 34 1018.2
20260510210214 21 0 0.0 0.0 0.00 0.58 0.03 32 1018.3
20260510205503 22 0 0.0 0.0 0.00 0.58 0.03 36 1018.3
20260510205003 22 350 1.6 9.7 0.00 0.58 0.03 35 1018.3
20260510204503 21 350 1.6 9.7 0.00 0.58 0.03 37 1018.4
20260510204003 21 350 0.0 8.0 0.00 0.58 0.03 36 1018.3
20260510203503 21 0 0.0 0.0 0.00 0.58 0.03 36 1018.2
20260510203003 21 0 0.0 0.0 0.00 0.58 0.03 34 1018.1
20260510202503 21 0 0.0 0.0 0.00 0.58 0.03 40 1018.1
20260510202003 21 0 0.0 0.0 0.00 0.58 0.03 40 1018.2
20260510201503 21 0 0.0 0.0 0.00 0.58 0.03 39 1018.2
20260510201214 21 0 0.0 0.0 0.00 0.58 0.03 40 1018.2
20260510200503 21 327 0.0 1.6 0.00 0.58 0.03 37 1018.1
20260510200003 21 351 1.6 9.7 0.00 0.58 0.03 39 1018.2
20260510195503 21 348 1.6 9.7 0.00 0.58 0.03 35 1018.3
20260510195003 21 344 1.6 9.7 0.00 0.58 0.03 39 1018.2
20260510194503 21 0 0.0 0.0 0.00 0.58 0.03 41 1018.4
20260510194217 21 0 0.0 0.0 0.00 0.58 0.03 39 1018.3
20260510193503 21 0 0.0 0.0 0.00 0.58 0.03 39 1018.3
20260510193213 21 0 0.0 0.0 0.00 0.58 0.03 37 1018.4
20260510192716 21 0 0.0 0.0 0.00 0.58 0.03 40 1018.5
20260510192003 20 0 0.0 0.0 0.00 0.58 0.03 39 1018.5
20260510191503 20 0 0.0 0.0 0.00 0.58 0.03 41 1018.5
20260510191003 20 0 0.0 0.0 0.00 0.58 0.03 40 1018.5
20260510190713 20 0 0.0 0.0 0.00 0.58 0.03 37 1018.4
20260510190003 20 0 0.0 0.0 0.00 0.58 0.03 38 1018.5
20260510185503 20 0 0.0 0.0 0.00 0.58 0.03 42 1018.4
20260510185216 19 0 0.0 0.0 0.00 0.58 0.03 42 1018.3
20260510184714 18 0 0.0 0.0 0.00 0.58 0.03 45 1018.2
20260510184003 19 0 0.0 0.0 0.00 0.58 0.03 40 1018.3
20260510183503 19 0 0.0 0.0 0.00 0.58 0.03 41 1018.1
20260510183003 20 0 0.0 0.0 0.00 0.58 0.03 43 1018.3
20260510182503 19 360 0.0 11.3 0.00 0.58 0.03 41 1018.3
20260510182003 20 360 0.0 11.3 0.00 0.58 0.03 42 1018.2
20260510181503 20 0 0.0 4.8 0.00 0.58 0.03 39 1018.1
20260510181003 20 347 0.0 4.8 0.00 0.58 0.03 45 1018.2
20260510180503 20 309 0.0 6.4 0.00 0.58 0.03 46 1018.2
20260510180003 20 336 0.0 9.7 0.00 0.58 0.03 41 1018.2
20260510175503 19 345 0.0 9.7 0.00 0.58 0.03 39 1018.2
20260510175003 19 348 0.0 9.7 0.00 0.58 0.03 40 1018.3
20260510174503 20 350 1.6 11.3 0.00 0.58 0.03 39 1018.4
20260510174003 20 351 1.6 14.5 0.00 0.58 0.03 39 1018.5
20260510173503 20 357 1.6 14.5 0.00 0.58 0.03 40 1018.4
20260510173003 20 20 0.0 14.5 0.00 0.58 0.03 46 1018.5
20260510172503 19 346 0.0 6.4 0.00 0.58 0.03 47 1018.4
20260510172003 18 345 0.0 6.4 0.00 0.58 0.03 43 1018.4
20260510171503 18 355 0.0 9.7 0.00 0.58 0.03 45 1018.7
20260510171003 18 358 0.0 9.7 0.00 0.58 0.03 46 1018.6
20260510170714 18 0 0.0 0.0 0.00 0.58 0.03 49 1018.5
20260510170003 18 81 0.0 8.0 0.00 0.58 0.03 46 1018.7
20260510165503 18 81 0.0 8.0 0.00 0.58 0.03 48 1018.6
20260510165213 18 81 0.0 8.0 0.00 0.58 0.03 44 1018.7
20260510164716 19 0 0.0 0.0 0.00 0.58 0.03 59 1018.6
20260510164003 18 0 0.0 0.0 0.00 0.58 0.03 60 1018.7
20260510163503 17 0 0.0 0.0 0.00 0.58 0.03 62 1018.7
20260510163003 16 0 0.0 0.0 0.00 0.58 0.03 62 1018.7
20260510162503 16 0 0.0 0.0 0.00 0.58 0.03 64 1018.7
20260510162003 16 0 0.0 0.0 0.00 0.58 0.03 65 1018.7
20260510161503 16 0 0.0 0.0 0.00 0.58 0.03 65 1018.7
20260510161003 16 0 0.0 0.0 0.00 0.58 0.03 64 1018.7
20260510160714 16 0 0.0 0.0 0.00 0.58 0.03 65 1018.7
20260510160003 16 0 0.0 0.0 0.00 0.58 0.03 65 1018.8
20260510155715 16 0 0.0 0.0 0.00 0.58 0.03 64 1018.8
20260510155003 16 0 0.0 0.0 0.00 0.58 0.03 61 1018.8
20260510154503 17 0 0.0 0.0 0.00 0.58 0.03 66 1018.7
20260510154003 16 0 0.0 0.0 0.00 0.58 0.03 71 1018.8
20260510153503 15 0 0.0 0.0 0.00 0.58 0.03 70 1018.8
20260510153004 15 0 0.0 0.0 0.00 0.58 0.03 70 1018.8
20260510152503 15 0 0.0 0.0 0.00 0.58 0.03 71 1018.7
20260510152003 15 0 0.0 0.0 0.00 0.58 0.03 72 1018.7
20260510151503 15 0 0.0 0.0 0.00 0.58 0.03 73 1018.6
20260510151003 14 0 0.0 0.0 0.00 0.58 0.03 74 1018.5
20260510150503 14 0 0.0 0.0 0.00 0.58 0.03 74 1018.4
20260510150003 14 0 0.0 0.0 0.00 0.58 0.03 74 1018.4
20260510145503 14 0 0.0 0.0 0.00 0.58 0.03 75 1018.3
20260510145003 13 0 0.0 0.0 0.00 0.58 0.03 74 1018.3
20260510144503 13 0 0.0 0.0 0.00 0.58 0.03 73 1018.4
20260510144003 14 0 0.0 0.0 0.00 0.58 0.03 73 1018.4
20260510143713 14 0 0.0 0.0 0.00 0.58 0.03 72 1018.2
20260510143003 13 0 0.0 0.0 0.00 0.58 0.03 74 1017.9
20260510142503 13 0 0.0 0.0 0.00 0.58 0.03 74 1017.9
20260510142003 13 0 0.0 0.0 0.00 0.58 0.03 75 1017.9
20260510141715 13 0 0.0 0.0 0.00 0.58 0.03 75 1017.9
20260510141003 13 0 0.0 0.0 0.00 0.58 0.03 77 1017.8
20260510140715 13 0 0.0 0.0 0.00 0.58 0.03 78 1017.8
20260510140003 13 0 0.0 0.0 0.00 0.58 0.03 80 1017.6
20260510135503 13 0 0.0 0.0 0.00 0.58 0.03 81 1017.4
20260510135003 13 0 0.0 0.0 0.00 0.58 0.03 81 1017.3
20260510134712 13 0 0.0 0.0 0.00 0.58 0.03 82 1017.4
20260510134003 13 0 0.0 0.0 0.00 0.58 0.03 82 1017.5
20260510133503 13 0 0.0 0.0 0.00 0.58 0.03 83 1017.4
20260510133003 13 0 0.0 0.0 0.00 0.58 0.03 84 1017.3
20260510132503 12 0 0.0 0.0 0.00 0.58 0.03 85 1017.4
20260510132212 12 0 0.0 0.0 0.00 0.58 0.03 86 1017.4
20260510131503 12 0 0.0 0.0 0.00 0.58 0.03 89 1017.4
20260510131003 12 0 0.0 0.0 0.00 0.58 0.03 91 1017.2
20260510130503 12 0 0.0 0.0 0.00 0.58 0.03 93 1017.1
20260510130003 12 0 0.0 0.0 0.00 0.58 0.03 93 1016.9
20260510125503 12 0 0.0 0.0 0.00 0.58 0.03 94 1016.9
20260510125003 12 0 0.0 0.0 0.00 0.58 0.03 95 1017.0
20260510124713 11 0 0.0 0.0 0.00 0.58 0.03 95 1016.8
20260510124003 11 0 0.0 0.0 0.00 0.58 0.03 95 1016.7
20260510123714 11 0 0.0 0.0 0.00 0.58 0.03 95 1016.7
20260510123003 11 0 0.0 0.0 0.00 0.58 0.03 95 1016.5
20260510122503 11 0 0.0 0.0 0.00 0.58 0.03 96 1016.4
20260510122003 11 0 0.0 0.0 0.00 0.58 0.03 96 1016.3
20260510121503 11 0 0.0 0.0 0.00 0.58 0.03 96 1016.1
20260510121214 11 0 0.0 0.0 0.00 0.58 0.03 96 1016.1
20260510120717 11 0 0.0 0.0 0.00 0.58 0.03 96 1016.1
20260510120003 11 0 0.0 0.0 0.00 0.58 0.03 96 1016.1
20260510115503 11 0 0.0 0.0 0.00 0.58 0.03 96 1016.0
20260510115003 11 0 0.0 0.0 0.00 0.58 0.03 96 1015.8
20260510114503 10 0 0.0 0.0 0.00 0.58 0.03 96 1015.7
20260510114217 10 0 0.0 0.0 0.00 0.58 0.03 96 1015.6
20260510113503 10 0 0.0 0.0 0.00 0.58 0.03 96 1015.4
20260510113212 10 0 0.0 0.0 0.00 0.58 0.03 96 1015.4
20260510112503 10 0 0.0 0.0 0.00 0.58 0.03 96 1015.3
20260510112003 10 0 0.0 0.0 0.00 0.58 0.03 96 1015.2
20260510111503 10 0 0.0 0.0 0.00 0.58 0.03 96 1015.1
20260510111215 10 0 0.0 0.0 0.00 0.58 0.03 96 1015.0
20260510110503 10 0 0.0 0.0 0.00 0.58 0.03 96 1015.0
20260510110003 10 0 0.0 0.0 0.00 0.58 0.03 96 1014.8
20260510105503 11 0 0.0 0.0 0.00 0.58 0.03 96 1014.7
20260510105003 11 0 0.0 0.0 0.00 0.58 0.03 96 1014.5
20260510104503 11 0 0.0 0.0 0.00 0.58 0.03 96 1014.5
20260510104212 11 0 0.0 0.0 0.03 0.58 0.03 96 1014.5
20260510103503 11 0 0.0 0.0 0.03 0.58 0.03 96 1014.2
20260510103213 11 0 0.0 0.0 0.03 0.58 0.03 96 1014.3
20260510102716 11 0 0.0 0.0 0.03 0.58 0.03 96 1014.3
20260510102214 11 0 0.0 0.0 0.03 0.58 0.03 96 1014.3
20260510101503 11 0 0.0 0.0 0.03 0.58 0.03 96 1014.0
20260510101003 11 0 0.0 0.0 0.03 0.58 0.03 96 1013.9
20260510100503 11 0 0.0 0.0 0.03 0.58 0.03 96 1013.7
20260510100003 11 0 0.0 0.0 0.03 0.58 0.03 96 1013.6
20260510095503 11 0 0.0 0.0 0.03 0.58 0.03 96 1013.6
20260510095217 11 0 0.0 0.0 0.03 0.58 0.03 96 1013.6
20260510094503 12 0 0.0 0.0 0.03 0.58 0.03 96 1013.6
20260510094003 12 0 0.0 0.0 0.00 0.56 0.00 96 1013.7
20260510093503 12 0 0.0 0.0 0.00 0.56 0.00 96 1013.7
20260510093003 12 0 0.0 0.0 0.00 0.56 0.00 96 1013.7
20260510092503 12 0 0.0 0.0 0.00 0.56 0.00 96 1013.7
20260510092003 12 0 0.0 0.0 0.00 0.56 0.00 96 1013.6
20260510091503 12 0 0.0 0.0 0.00 0.56 0.00 96 1013.5
20260510091003 12 0 0.0 0.0 0.00 0.56 0.00 96 1013.5
20260510090503 12 0 0.0 0.0 0.00 0.56 0.00 96 1013.3
20260510090003 12 0 0.0 0.0 0.00 0.56 0.00 96 1013.3
20260510085503 12 0 0.0 0.0 0.00 0.56 0.00 96 1013.1
20260510085003 12 0 0.0 0.0 0.00 0.56 0.00 95 1013.0
20260510084503 12 0 0.0 0.0 0.00 0.56 0.00 96 1012.8
20260510084003 13 0 0.0 0.0 0.00 0.56 0.00 96 1012.7
20260510083503 13 0 0.0 0.0 0.00 0.56 0.00 95 1012.5
20260510083003 13 0 0.0 0.0 0.00 0.56 0.00 95 1012.4
20260510082503 13 0 0.0 0.0 0.00 0.56 0.00 95 1012.4
20260510082003 13 0 0.0 0.0 0.00 0.56 0.00 95 1012.3
20260510081503 13 0 0.0 0.0 0.00 0.56 0.00 95 1012.0
20260510081003 13 0 0.0 0.0 0.00 0.56 0.00 95 1012.0
20260510080503 13 0 0.0 0.0 0.00 0.56 0.00 95 1012.0
20260510080004 13 0 0.0 0.0 0.00 0.56 0.00 95 1011.9
20260510075503 13 0 0.0 0.0 0.00 0.56 0.00 95 1011.8
20260510075003 13 0 0.0 0.0 0.00 0.56 0.00 95 1011.7
20260510074503 14 0 0.0 0.0 0.00 0.56 0.00 95 1011.7
20260510074003 14 0 0.0 0.0 0.00 0.58 0.00 95 1011.8
20260510073503 14 0 0.0 0.0 0.00 0.58 0.00 95 1011.8
20260510073003 14 0 0.0 0.0 0.00 0.58 0.00 95 1011.9
20260510072503 14 0 0.0 0.0 0.00 0.58 0.00 95 1011.9
20260510072003 14 0 0.0 0.0 0.00 0.58 0.00 95 1011.9
20260510071503 14 0 0.0 0.0 0.00 0.58 0.00 95 1011.8
20260510071003 14 0 0.0 0.0 0.00 0.58 0.00 95 1011.7
20260510070503 14 0 0.0 0.0 0.00 0.58 0.00 95 1011.7
20260510070003 14 0 0.0 0.0 0.00 0.58 0.00 95 1011.7
20260510065503 14 0 0.0 0.0 0.00 0.58 0.00 95 1011.7
20260510065003 14 0 0.0 0.0 0.00 0.58 0.00 95 1011.7
20260510064503 14 0 0.0 0.0 0.00 0.58 0.00 95 1011.7
20260510064003 14 0 0.0 0.0 0.00 0.58 0.00 95 1011.7
20260510063503 15 0 0.0 0.0 0.00 0.58 0.00 95 1011.7
20260510063003 15 0 0.0 0.0 0.00 0.58 0.00 95 1011.7
20260510062503 15 0 0.0 0.0 0.00 0.58 0.00 95 1011.7
20260510062217 15 0 0.0 0.0 0.00 0.58 0.00 95 1011.7
20260510061503 15 0 0.0 0.0 0.00 0.58 0.00 95 1011.7
20260510061003 15 0 0.0 0.0 0.00 0.58 0.00 95 1011.7
20260510060503 15 0 0.0 0.0 0.00 0.58 0.00 94 1011.7
20260510060003 15 0 0.0 0.0 0.00 0.58 0.00 94 1011.7
20260510055503 15 0 0.0 0.0 0.00 0.58 0.00 94 1011.7
20260510055214 15 0 0.0 0.0 0.00 0.58 0.00 94 1011.7
20260510054503 15 0 0.0 0.0 0.00 0.58 0.00 94 1011.4
20260510054004 15 0 0.0 0.0 0.00 0.58 0.00 94 1011.4
20260510053503 15 0 0.0 0.0 0.00 0.58 0.00 94 1011.5
20260510053003 15 0 0.0 0.0 0.00 0.58 0.00 94 1011.3
20260510052503 15 0 0.0 0.0 0.00 0.58 0.00 94 1011.2
20260510052003 15 0 0.0 0.0 0.00 0.58 0.00 94 1010.9
20260510051503 15 0 0.0 0.0 0.00 0.58 0.00 94 1010.7
20260510051213 15 0 0.0 0.0 0.00 0.58 0.00 94 1010.8
20260510050503 15 0 0.0 0.0 0.00 0.58 0.00 94 1011.0
20260510050005 15 0 0.0 0.0 0.03 0.58 0.00 94 1011.0
20260510045503 15 0 0.0 0.0 0.03 0.58 0.58 94 1011.1
20260510045004 15 0 0.0 0.0 0.05 0.58 0.58 94 1010.8
20260510044503 15 0 0.0 0.0 0.08 0.58 0.58 94 1010.7
20260510044003 15 0 0.0 0.0 0.13 0.58 0.58 93 1010.7
20260510043503 15 0 0.0 0.0 0.15 0.58 0.58 93 1010.7
20260510043003 15 0 0.0 0.0 0.15 0.58 0.58 93 1010.6
20260510042503 15 0 0.0 0.0 0.20 0.58 0.58 93 1010.5
20260510042003 15 0 0.0 0.0 0.20 0.58 0.58 93 1010.1
20260510041504 15 0 0.0 0.0 0.23 0.58 0.58 93 1010.2
20260510041003 16 0 0.0 0.0 0.28 0.58 0.58 93 1010.1
20260510040503 16 0 0.0 0.0 0.33 0.58 0.58 93 1010.2
20260510040004 16 0 0.0 0.0 0.36 0.56 0.56 93 1010.4
20260510035503 16 0 0.0 0.0 0.43 0.56 0.56 92 1010.6
20260510035003 16 0 0.0 0.0 0.46 0.53 0.53 92 1010.4
20260510034503 16 0 0.0 0.0 0.46 0.51 0.51 92 1010.9
20260510034003 16 100 1.6 9.7 0.43 0.46 0.48 92 1010.7
20260510033503 16 89 1.6 9.7 0.41 0.43 0.43 92 1009.8
20260510033003 16 351 1.6 14.5 0.41 0.43 0.43 91 1010.4
20260510032503 16 355 1.6 14.5 0.36 0.38 0.38 91 1011.0
20260510032003 16 358 3.2 12.9 0.36 0.38 0.38 91 1010.9
20260510031503 16 349 4.8 12.9 0.33 0.36 0.36 90 1011.2
20260510031215 16 345 4.8 14.5 0.30 0.33 0.33 90 1011.3
20260510030503 16 331 6.4 14.5 0.23 0.25 0.25 89 1011.6
20260510030003 16 319 8.0 22.5 0.18 0.23 0.20 87 1011.4
20260510025503 17 321 9.7 43.5 0.10 0.18 0.13 86 1011.2
20260510025004 17 327 14.5 43.5 0.05 0.13 0.08 82 1010.8
20260510024004 19 318 3.2 30.6 0.00 0.13 0.03 74 1009.9
20260510023503 18 0 0.0 0.0 0.00 0.15 0.03 74 1008.1
20260510023003 18 0 0.0 0.0 0.00 0.18 0.03 76 1007.9
20260510022503 18 0 0.0 0.0 0.00 0.20 0.03 76 1007.6
20260510022003 18 0 0.0 0.0 0.00 0.20 0.03 76 1007.5
20260510021503 18 0 0.0 0.0 0.00 0.25 0.03 76 1007.5
20260510021003 18 0 0.0 0.0 0.00 0.30 0.03 76 1007.4
20260510020503 18 0 0.0 0.0 0.00 0.38 0.03 76 1007.3
20260510020004 18 0 0.0 0.0 0.00 0.43 0.03 76 1007.2
20260510015503 18 0 0.0 0.0 0.00 0.48 0.03 75 1007.1
20260510015003 18 0 0.0 0.0 0.00 0.56 0.03 73 1007.1
20260510014713 18 0 0.0 0.0 0.00 0.61 0.03 73 1007.0
20260510014003 18 0 0.0 0.0 0.00 0.69 0.03 73 1006.9
20260510013503 19 0 0.0 0.0 0.00 0.74 0.03 72 1006.8
20260510013003 19 0 0.0 0.0 0.00 0.76 0.03 70 1006.7
20260510012504 20 0 0.0 0.0 0.00 0.81 0.03 69 1006.6
20260510012003 20 0 0.0 0.0 0.00 0.86 0.03 67 1006.6
20260510011503 20 0 0.0 0.0 0.00 0.89 0.03 64 1006.7
20260510011005 20 0 0.0 0.0 0.00 0.89 0.03 63 1006.7
20260510010503 21 0 0.0 0.0 0.00 0.89 0.03 62 1006.7
20260510010004 21 0 0.0 0.0 0.00 0.89 0.03 61 1006.7
20260510005503 22 0 0.0 0.0 0.00 0.89 0.03 60 1006.7
20260510005003 22 0 0.0 0.0 0.00 0.89 0.03 58 1006.7
20260510004503 22 0 0.0 0.0 0.00 0.89 0.03 55 1006.7
20260510004003 23 0 0.0 0.0 0.00 0.89 0.03 53 1006.5
20260510003714 23 0 0.0 0.0 0.00 0.89 0.03 52 1006.6
20260510003004 24 0 0.0 0.0 0.00 0.91 0.03 51 1006.4
20260510002503 25 0 0.0 0.0 0.00 0.91 0.03 48 1006.4
20260510002003 25 0 0.0 0.0 0.00 0.91 0.03 46 1006.3
20260510001504 25 0 0.0 0.0 0.00 0.91 0.03 47 1006.3
20260510001003 26 0 0.0 0.0 0.00 0.94 0.03 44 1006.3
20260510000504 26 0 0.0 0.0 0.00 0.94 0.03 43 1006.3
20260510000004 26 0 0.0 0.0 0.00 0.94 0.03 40 1006.3
20260509235503 27 0 0.0 0.0 0.00 0.94 0.03 40 1006.3
20260509235216 27 0 0.0 0.0 0.00 0.97 0.03 41 1006.3
20260509234503 27 0 0.0 0.0 0.00 0.97 0.03 38 1006.2
20260509234217 27 0 0.0 0.0 0.00 0.97 0.03 38 1006.3
20260509233503 27 0 0.0 0.0 0.00 0.97 0.03 41 1006.3
20260509233213 27 0 0.0 0.0 0.00 0.97 0.03 38 1006.2
20260509232716 27 0 0.0 0.0 0.00 0.97 0.03 39 1006.2
20260509232003 27 0 0.0 0.0 0.00 0.97 0.03 38 1006.2
20260509231717 27 0 0.0 0.0 0.00 0.97 0.03 40 1006.2
20260509231003 27 0 0.0 0.0 0.00 0.97 0.03 38 1006.2
20260509230504 27 0 0.0 0.0 0.00 0.97 0.03 38 1006.1
20260509230004 27 0 0.0 0.0 0.00 0.97 0.03 37 1006.1